TimeCST,TemperatureF,Dew PointF,Humidity,Sea Level PressureIn,VisibilityMPH,Wind Direction,Wind SpeedMPH,Gust SpeedMPH,PrecipitationIn,Events,Conditions,WindDirDegrees,DateUTC
12:54 AM,24.1,19.9,84,30.18,10.0,SE,8.1,-,N/A,,Clear,130,2013-01-22 06:54:00
1:54 AM,24.1,19.0,81,30.15,10.0,SE,9.2,-,N/A,,Clear,140,2013-01-22 07:54:00
2:54 AM,21.9,17.1,82,30.14,10.0,SSE,6.9,-,N/A,,Clear,150,2013-01-22 08:54:00
3:54 AM,19.9,17.1,89,30.13,10.0,South,3.5,-,N/A,,Clear,170,2013-01-22 09:54:00
4:54 AM,18.0,15.1,88,30.15,10.0,North,3.5,-,N/A,,Clear,360,2013-01-22 10:54:00
5:54 AM,19.0,16.0,88,30.14,10.0,SSE,3.5,-,N/A,,Clear,150,2013-01-22 11:54:00
6:54 AM,17.1,15.1,92,30.15,10.0,WNW,3.5,-,N/A,,Clear,290,2013-01-22 12:54:00
7:54 AM,18.0,15.1,88,30.16,10.0,NNW,9.2,-,N/A,,Clear,340,2013-01-22 13:54:00
8:54 AM,19.9,17.1,89,30.18,10.0,North,12.7,-,N/A,,Clear,10,2013-01-22 14:54:00
9:54 AM,25.0,19.9,81,30.21,10.0,North,9.2,-,N/A,,Clear,10,2013-01-22 15:54:00
10:54 AM,28.9,21.9,75,30.23,10.0,North,5.8,-,N/A,,Clear,10,2013-01-22 16:54:00
11:54 AM,36.0,23.0,59,30.20,10.0,NNE,8.1,-,N/A,,Clear,30,2013-01-22 17:54:00
12:54 PM,42.1,23.0,47,30.16,10.0,NNE,6.9,-,N/A,,Clear,30,2013-01-22 18:54:00
1:54 PM,46.0,23.0,40,30.14,10.0,East,3.5,-,N/A,,Clear,80,2013-01-22 19:54:00
2:54 PM,48.0,21.9,36,30.14,10.0,ENE,5.8,-,N/A,,Clear,70,2013-01-22 20:54:00
3:54 PM,48.0,21.0,34,30.16,10.0,Variable,5.8,-,N/A,,Clear,0,2013-01-22 21:54:00
4:54 PM,46.9,19.9,34,30.17,10.0,ENE,5.8,-,N/A,,Clear,70,2013-01-22 22:54:00
5:54 PM,39.0,21.0,49,30.19,10.0,ESE,5.8,-,N/A,,Clear,110,2013-01-22 23:54:00
6:54 PM,32.0,19.0,59,30.21,10.0,ESE,6.9,-,N/A,,Clear,120,2013-01-23 00:54:00
7:54 PM,30.9,19.0,61,30.23,10.0,East,5.8,-,N/A,,Clear,100,2013-01-23 01:54:00
8:54 PM,30.0,19.0,64,30.25,10.0,SE,6.9,-,N/A,,Clear,140,2013-01-23 02:54:00
9:54 PM,33.1,19.0,56,30.24,10.0,South,4.6,-,N/A,,Clear,170,2013-01-23 03:54:00
10:54 PM,30.0,19.0,64,30.26,10.0,SSE,3.5,-,N/A,,Clear,150,2013-01-23 04:54:00
11:54 PM,30.0,19.0,64,30.24,10.0,SSW,4.6,-,N/A,,Clear,200,2013-01-23 05:54:00